This is the latest recevied weather packets stored in our database for station/object AF5AA. If no packets are shown the sender has not sent any weather packets the latest 10 day(s).
| Time | Temp. | Humidity | Pressure | Rain* | Wind** | Luminosity | Snow |
|---|---|---|---|---|---|---|---|
| 1777910093 | 22.22° C | 60% | 1014.9 hPa | 0 mm | - | 194 W/m² | - |
| 1777909791 | 22.22° C | 60% | 1014.7 hPa | 0 mm | - | 275 W/m² | - |
| 1777909487 | 21.67° C | 60% | 1014.8 hPa | 0 mm | - | 71 W/m² | - |
| 1777909185 | 21.67° C | 61% | 1014.8 hPa | 0 mm | - | 79 W/m² | - |
| 1777908883 | 21.67° C | 59% | 1014.8 hPa | 0 mm | - | 136 W/m² | - |
| 1777908580 | 21.67° C | 61% | 1014.5 hPa | 0 mm | - | 135 W/m² | - |
| 1777908277 | 21.11° C | 61% | 1014.8 hPa | 0 mm | - | 46 W/m² | - |
| 1777907973 | 21.11° C | 62% | 1015 hPa | 0 mm | - | 36 W/m² | - |
| 1777907668 | 21.11° C | 62% | 1014.8 hPa | 0 mm | - | 39 W/m² | - |
| 1777907364 | 20.56° C | 62% | 1014.9 hPa | 0 mm | - | 42 W/m² | - |
| 1777907061 | 20.56° C | 62% | 1014.9 hPa | 0 mm | - | 32 W/m² | - |
| 1777906758 | 20.56° C | 65% | 1014.9 hPa | 0 mm | - | 35 W/m² | - |
| 1777906455 | 20° C | 63% | 1014.7 hPa | 0 mm | - | 32 W/m² | - |
| 1777906152 | 20° C | 65% | 1015 hPa | 0 mm | - | 44 W/m² | - |
| 1777905848 | 20° C | 66% | 1015.1 hPa | 0 mm | - | 41 W/m² | - |
| 1777905545 | 19.44° C | 70% | 1015 hPa | 0 mm | - | 24 W/m² | - |
| 1777905242 | 18.89° C | 77% | 1015.1 hPa | 0 mm | - | 36 W/m² | - |
| 1777904939 | 18.33° C | 80% | 1015.1 hPa | 0 mm | - | 54 W/m² | - |
| 1777904636 | 18.33° C | 80% | 1014.9 hPa | 0 mm | - | 24 W/m² | - |
| 1777904333 | 17.78° C | 75% | 1015 hPa | 0 mm | - | 28 W/m² | - |
| 1777904030 | 17.22° C | 82% | 1015 hPa | 0 mm | - | 41 W/m² | - |
| 1777903727 | 16.67° C | 85% | 1015 hPa | 0 mm | - | 53 W/m² | - |
| 1777903423 | 16.67° C | 89% | 1015.2 hPa | 0 mm | - | 34 W/m² | - |
| 1777903120 | 16.11° C | 88% | 1015.3 hPa | 0 mm | - | 27 W/m² | - |
| 1777902816 | 15.56° C | 89% | 1015.1 hPa | 0 mm | - | 23 W/m² | - |
* Rain latest hour (hover to see other rain measurements)
** Current wind speed in m/s (hover to see current wind gust speed)